This demonstration page uses our WeatherBlox Daily Observations layout. Learn more.

Left ArrowRight Arrow

41.12389, -100.76542

Hourly Observations for July 2, 2018

Temp ( °F °C ) Dew Point ( °F °C ) Humidity (%) Winds ( mph kmh ) Pressure ( in mb ) Visibility ( mi km ) Precip ( " mm )
12:53 am 00:53 Clear 62 16.7 61 16.1 96 96 ESE 7 11 29.95 1014 10 16 0.00 0.00
1:53 am 01:53 Clear 62 16.7 61 16.1 96 96 ESE 6 9 29.95 1014 10 16 0.00 0.00
2:53 am 02:53 Clear 60 15.6 59 15 96 96 SE 8 13 29.94 1014 10 16 0.00 0.00
3:53 am 03:53 Clear 59 15 59 15 100 100 SE 7 11 29.94 1014 10 16 0.00 0.00
4:53 am 04:53 Clear 59 15 59 15 100 100 ESE 7 11 29.93 1014 10 16 0.00 0.00
5:53 am 05:53 Clear 59 15 58 14.4 96 96 ESE 6 9 29.94 1014 10 16 0.00 0.00
6:53 am 06:53 Sunny 60 15.6 59 15 96 96 SE 9 15 29.94 1014 10 16 0.00 0.00
7:53 am 07:53 Sunny 65 18.3 61 16.1 87 87 SE 8 13 29.94 1014 10 16 0.00 0.00
8:53 am 08:53 Sunny 70 21.1 64 17.8 82 82 S 10 17 29.95 1014 10 16 0.00 0.00
9:53 am 09:53 Cloudy 75 23.9 68 20 79 79 SSW 13 20 29.93 1014 10 16 0.00 0.00
10:53 am 10:53 Cloudy 78 25.6 70 21.1 76 76 S 13 20 29.91 1013 10 16 0.00 0.00
11:17 am 11:17 Mostly Cloudy 79 26.1 71 21.7 77 77 SSW 15 24 29.80 1009 10 16 0.00 0.00
11:53 am 11:53 Mostly Cloudy 81 27.2 72 22.2 74 74 SSW 14 22 29.90 1013 10 16 0.00 0.00
12:53 pm 12:53 Cloudy 82 27.8 73 22.8 74 74 S 14 22 29.90 1012 10 16 0.00 0.00
1:31 pm 13:31 Mostly Cloudy 85 29.4 74 23.3 70 70 SSW 15 24 29.77 1008 10 16 0.00 0.00
1:53 pm 13:53 Partly Cloudy 86 30 74 23.3 67 67 SSW 16 26 29.87 1012 10 16 0.00 0.00
2:53 pm 14:53 Mostly Cloudy 86 30 74 23.3 67 67 S 14 22 29.85 1011 10 16 0.00 0.00
3:53 pm 15:53 Partly Cloudy 89 31.7 75 23.9 63 63 S 14 22 29.82 1010 10 16 0.00 0.00
4:53 pm 16:53 Partly Cloudy 90 32.2 75 23.9 62 62 S 14 22 29.79 1009 10 16 0.00 0.00
5:24 pm 17:24 Mostly Cloudy with Nearby Thunderstorms 88 31.1 75 23.9 66 66 S 16 26 29.65 1004 10 16 0.00 0.00
5:41 pm 17:41 Mostly Cloudy 90 32.2 75 23.9 62 62 S 16 26 29.62 1003 10 16 0.00 0.00
5:49 pm 17:49 Partly Cloudy with Nearby Thunderstorms 90 32 75 24 63 63 S 16 26 29.62 1003 10 16 0.00 0.00
5:53 pm 17:53 Partly Cloudy with Nearby Thunderstorms 90 32.2 75 23.9 62 62 S 14 22 29.78 1009 10 16 0.00 0.00
6:53 pm 18:53 Mostly Sunny 88 31.1 75 23.9 66 66 S 17 28 29.78 1009 10 16 0.00 0.00
7:53 pm 19:53 Sunny 86 30 75 23.9 70 70 S 9 15 29.79 1009 10 16 0.00 0.00
8:53 pm 20:53 Sunny 83 28.3 75 23.9 77 77 SSE 14 22 29.79 1009 10 16 0.00 0.00
9:53 pm 21:53 Clear 80 26.7 75 23.9 85 85 SE 12 19 29.79 1009 10 16 0.00 0.00
10:53 pm 22:53 Clear 80 26.7 74 23.3 82 82 SE 12 19 29.82 1010 10 16 0.00 0.00
11:53 pm 23:53 Clear 80 26.7 73 22.8 79 79 SSE 10 17 29.83 1010 10 16 0.00 0.00

Powered by AerisWeather